EW6576 Weather Reports


Display with metric or nautical units.
time (UTC)temp
F
wind
direction
speed
MPH
gust
MPH
rain 1hr
in
rain 24hr
in
rain mn
in
humidity
%
barometer
mb
20260906132745 68 143 0.0 0.0 0.00 0.02 0.02 96 1012.1
20260906132240 68 142 1.0 1.0 0.00 0.02 0.02 96 1012.2
20260906131735 68 144 0.0 0.0 0.00 0.02 0.02 96 1011.9
20260906131225 68 144 0.0 0.0 0.00 0.02 0.02 96 1012.1
20260906130720 68 144 0.0 0.0 0.00 0.02 0.02 95 1012.0
20260906130215 68 144 0.0 0.0 0.00 0.02 0.02 96 1011.8
20260906125714 68 143 0.0 0.0 0.00 0.02 0.02 96 1011.8
20260906125212 68 144 0.0 0.0 0.00 0.02 0.02 96 1011.8
20260906124707 67 144 0.0 0.0 0.00 0.02 0.02 96 1011.6
20260906124203 67 144 0.0 0.0 0.00 0.02 0.02 96 1012.0
20260906123701 68 144 0.0 0.0 0.00 0.02 0.02 96 1012.0
20260906123157 68 144 0.0 0.0 0.00 0.02 0.02 96 1011.9
20260906122656 68 144 0.0 0.0 0.00 0.02 0.02 96 1012.1
20260906122152 67 144 0.0 0.0 0.00 0.02 0.02 96 1012.2
20260906121648 67 144 0.0 0.0 0.00 0.02 0.02 96 1012.0
20260906121144 67 145 0.0 0.0 0.00 0.02 0.02 96 1012.0
20260906120640 67 145 0.0 0.0 0.00 0.02 0.02 96 1012.1
20260906120137 67 144 1.0 1.0 0.00 0.02 0.02 96 1012.2
20260906115637 67 144 0.0 0.0 0.00 0.02 0.02 96 1012.1
20260906115132 67 142 0.0 0.0 0.00 0.02 0.02 96 1012.3
20260906114626 67 157 1.0 1.0 0.00 0.02 0.02 96 1012.2
20260906114120 67 169 0.0 0.0 0.00 0.02 0.02 96 1012.1
20260906113615 67 170 0.0 1.0 0.00 0.02 0.02 96 1012.3
20260906113115 67 173 0.0 0.0 0.00 0.02 0.02 96 1012.2
20260906112614 67 172 0.0 0.0 0.00 0.02 0.02 95 1012.1
20260906112111 68 172 0.0 0.0 0.00 0.02 0.02 95 1012.3
20260906111610 68 173 1.0 1.0 0.00 0.02 0.02 96 1012.3
20260906111106 67 141 0.0 0.0 0.00 0.02 0.02 95 1012.0
20260906110606 67 141 0.0 0.0 0.00 0.02 0.02 95 1012.4
20260906110100 67 141 0.0 0.0 0.00 0.02 0.02 95 1012.7
20260906105555 67 141 1.0 1.0 0.00 0.02 0.02 95 1012.3
20260906105051 67 141 0.0 0.0 0.00 0.02 0.02 95 1012.3
20260906104549 67 141 0.0 0.0 0.00 0.02 0.02 95 1012.2
20260906104044 67 141 0.0 0.0 0.00 0.02 0.02 95 1012.4
20260906103542 67 141 0.0 0.0 0.00 0.02 0.02 95 1012.3
20260906103038 67 141 0.0 0.0 0.00 0.02 0.02 95 1012.2
20260906102537 67 141 0.0 0.0 0.00 0.02 0.02 95 1012.3
20260906102033 67 141 0.0 0.0 0.00 0.02 0.02 95 1012.2
20260906101527 67 141 0.0 1.0 0.00 0.02 0.02 95 1012.2
20260906101022 66 141 0.0 0.0 0.00 0.02 0.02 94 1012.4
20260906100518 66 141 0.0 0.0 0.00 0.02 0.02 94 1012.4
20260906100012 66 141 0.0 1.0 0.00 0.02 0.02 94 1012.5
20260906095507 66 141 0.0 0.0 0.00 0.02 0.02 94 1012.4
20260906095002 66 141 1.0 1.0 0.00 0.02 0.02 94 1012.3
20260906094501 66 141 0.0 0.0 0.00 0.02 0.02 93 1012.4
20260906093957 66 141 0.0 1.0 0.00 0.02 0.02 93 1012.4
20260906093454 66 141 0.0 0.0 0.00 0.02 0.02 93 1012.4
20260906092954 65 142 0.0 0.0 0.00 0.02 0.02 92 1012.3
20260906092453 64 141 0.0 0.0 0.00 0.02 0.02 93 1012.5
20260906091948 65 140 1.0 1.0 0.00 0.02 0.02 94 1012.6
20260906091445 65 140 1.0 1.0 0.00 0.02 0.02 93 1012.3
20260906090941 65 140 0.0 1.0 0.00 0.02 0.02 93 1012.5
20260906090436 65 140 0.0 0.0 0.00 0.02 0.02 92 1012.5
20260906085930 66 138 1.0 1.0 0.05 0.02 0.02 91 1012.5
20260906085429 65 145 0.0 1.0 0.05 0.02 0.02 91 1012.7
20260906084928 65 146 0.0 1.0 0.00 0.01 0.01 90 1012.6
20260906084424 64 148 0.0 0.0 0.00 0.01 0.01 89 1012.7
20260906083923 64 145 0.0 1.0 0.00 0.01 0.01 89 1012.8
20260906083418 65 151 0.0 1.0 0.00 0.01 0.01 90 1012.8
20260906082917 65 180 0.0 0.0 0.07 0.01 0.01 89 1012.8
20260906082413 66 150 0.0 0.0 0.07 0.01 0.01 88 1012.7
20260906081909 66 132 0.0 1.0 0.00 0.00 0.00 87 1012.7
20260906081404 67 138 1.0 1.0 0.00 0.00 0.00 84 1013.0
20260906080900 68 134 1.0 1.0 0.00 0.00 0.00 78 1012.9
20260906080356 68 144 0.0 0.0 0.00 0.00 0.00 73 1013.0
20260906075855 69 119 1.0 2.0 0.00 0.00 0.00 70 1013.0
20260906075351 70 148 0.0 0.0 0.00 0.00 0.00 62 1012.6
20260906074846 71 147 1.0 1.0 0.00 0.00 0.00 53 1012.8
20260906074346 72 149 0.0 0.0 0.00 0.00 0.00 46 1012.9
20260906073844 72 149 0.0 0.0 0.00 0.00 0.00 45 1012.8
20260906073339 72 149 1.0 1.0 0.00 0.00 0.00 46 1012.8
20260906072836 72 149 0.0 0.0 0.00 0.00 0.00 47 1013.1
20260906072332 73 184 0.0 0.0 0.00 0.00 0.00 45 1012.8
20260906071827 72 151 0.0 0.0 0.00 0.00 0.00 47 1012.7
20260906071322 72 152 0.0 0.0 0.00 0.00 0.00 48 1012.8
20260906070818 72 152 0.0 0.0 0.00 0.00 0.00 48 1012.8
20260906070313 72 152 0.0 0.0 0.00 0.00 0.00 47 1012.8
20260906065808 73 152 1.0 1.0 0.00 0.00 0.00 48 1012.9
20260906065305 73 153 0.0 0.0 0.00 0.00 0.00 46 1012.6
20260906064759 73 152 0.0 0.0 0.00 0.00 0.00 46 1012.7
20260906064255 74 170 0.0 1.0 0.00 0.00 0.00 44 1012.5
20260906063749 74 203 1.0 1.0 0.00 0.00 0.00 42 1012.7
20260906063245 74 146 0.0 0.0 0.00 0.00 0.00 44 1012.8
20260906062740 73 162 0.0 0.0 0.00 0.00 0.00 45 1012.8
20260906062239 73 154 0.0 0.0 0.00 0.00 0.00 45 1012.9
20260906061735 74 154 0.0 0.0 0.00 0.00 0.00 44 1012.8
20260906061231 74 154 0.0 0.0 0.00 0.00 0.00 43 1012.8
20260906060726 73 149 1.0 2.0 0.00 0.00 0.00 43 1012.7
20260906060224 73 132 2.0 2.0 0.00 0.00 0.00 42 1012.5
20260906055719 73 137 0.0 0.0 0.00 0.00 0.00 44 1012.4
20260906055214 73 137 0.0 0.0 0.00 0.00 0.00 44 1012.5
20260906054709 73 137 0.0 0.0 0.00 0.00 0.00 43 1012.6
20260906054204 73 137 0.0 0.0 0.00 0.00 0.00 43 1012.5
20260906053701 73 137 0.0 0.0 0.00 0.00 0.00 43 1012.8
20260906053156 73 137 0.0 0.0 0.00 0.00 0.00 42 1012.8
20260906052651 74 136 1.0 1.0 0.00 0.00 0.00 43 1013.0
20260906052148 74 147 0.0 1.0 0.00 0.00 0.00 44 1012.8
20260906051644 74 146 0.0 0.0 0.00 0.00 0.00 42 1012.8
20260906051143 73 146 0.0 0.0 0.00 0.00 0.00 42 1012.8
20260906050639 73 146 0.0 1.0 0.00 0.00 0.00 46 1012.5
20260906050134 74 148 0.0 0.0 0.00 0.00 0.00 47 1012.6
20260906045632 73 148 0.0 0.0 0.00 0.00 0.00 46 1012.9
20260906045128 74 148 0.0 0.0 0.00 0.00 0.00 46 1012.7
20260906044624 74 148 0.0 0.0 0.00 0.00 0.00 47 1012.8
20260906044119 74 148 0.0 0.0 0.00 0.00 0.00 47 1012.5
20260906043615 73 148 0.0 0.0 0.00 0.00 0.00 47 1012.9
20260906043110 73 149 0.0 0.0 0.00 0.00 0.00 49 1012.9
20260906042609 74 149 0.0 0.0 0.00 0.00 0.00 49 1012.9
20260906042104 75 149 0.0 0.0 0.00 0.00 0.00 49 1012.7
20260906041600 75 152 0.0 0.0 0.00 0.00 0.00 47 1012.8
20260906041055 75 151 0.0 0.0 0.00 0.00 0.00 47 1013.0
20260906040550 75 149 0.0 0.0 0.00 0.00 0.00 47 1012.8
20260906040045 75 147 0.0 0.0 0.00 0.00 0.00 47 1012.8
20260906035541 75 147 1.0 1.0 0.00 0.00 0.00 47 1012.7
20260906035037 76 131 1.0 1.0 0.00 0.00 0.00 46 1012.9
20260906034536 78 187 0.0 0.0 0.00 0.00 0.00 43 1012.5
20260906034031 78 188 1.0 1.0 0.00 0.00 0.00 41 1012.7
20260906033526 78 188 0.0 1.0 0.00 0.00 0.00 41 1012.6
20260906033022 77 186 0.0 0.0 0.00 0.00 0.00 43 1012.8
20260906032519 77 154 0.0 0.0 0.00 0.00 0.00 46 1012.4
20260906032018 77 153 0.0 0.0 0.00 0.00 0.00 47 1012.7
20260906031514 78 153 1.0 1.0 0.00 0.00 0.00 42 1012.5
20260906031003 78 178 0.0 0.0 0.00 0.00 0.00 38 1012.6
20260906030458 79 180 0.0 0.0 0.00 0.00 0.00 39 1012.4
20260906025957 78 151 0.0 0.0 0.00 0.00 0.00 45 1012.3
20260906025457 78 147 0.0 0.0 0.00 0.00 0.00 42 1012.5
20260906024955 79 182 0.0 0.0 0.00 0.00 0.00 40 1012.5
20260906024450 79 189 1.0 1.0 0.00 0.00 0.00 42 1012.0
20260906023945 79 204 1.0 1.0 0.00 0.00 0.00 44 1012.2
20260906023441 78 120 1.0 1.0 0.00 0.00 0.00 43 1012.1
20260906022936 79 154 0.0 0.0 0.00 0.00 0.00 45 1012.3
20260906022431 79 113 2.0 2.0 0.00 0.00 0.00 44 1012.1
20260906021926 79 111 2.0 2.0 0.00 0.00 0.00 43 1012.3
20260906021426 79 161 0.0 1.0 0.00 0.00 0.00 42 1012.0
20260906020920 80 150 1.0 1.0 0.00 0.00 0.00 41 1012.0
20260906020415 80 128 3.0 5.0 0.00 0.00 0.00 39 1012.1
20260906015909 81 119 4.0 5.0 0.00 0.00 0.00 40 1012.2
20260906015409 81 128 4.0 5.0 0.00 0.00 0.00 38 1012.0
20260906014908 82 134 3.0 3.0 0.00 0.00 0.00 36 1012.1
20260906014403 82 75 3.0 3.0 0.00 0.00 0.00 38 1012.1
20260906013859 82 133 4.0 5.0 0.00 0.00 0.00 38 1012.1
20260906013355 83 81 3.0 5.0 0.00 0.00 0.00 37 1012.3
20260906012850 83 73 3.0 3.0 0.00 0.00 0.00 40 1012.1
20260906012344 84 138 1.0 2.0 0.00 0.00 0.00 37 1012.1
20260906011844 84 66 1.0 2.0 0.00 0.00 0.00 38 1012.2
20260906011339 84 148 1.0 1.0 0.00 0.00 0.00 37 1012.0
20260906010835 85 120 1.0 3.0 0.00 0.00 0.00 37 1012.2
20260906010331 85 129 1.0 2.0 0.00 0.00 0.00 34 1012.0
20260906005826 86 97 3.0 5.0 0.00 0.00 0.00 34 1012.1
20260906005325 87 178 3.0 6.0 0.00 0.00 0.00 32 1012.0
20260906004824 87 107 2.0 5.0 0.00 0.00 0.00 33 1012.0
20260906004324 88 115 4.0 6.0 0.00 0.00 0.00 36 1012.2
20260906003819 88 119 5.0 6.0 0.00 0.00 0.00 36 1012.0
20260906003315 88 156 2.0 2.0 0.00 0.00 0.00 35 1012.1
20260906002810 88 194 3.0 5.0 0.00 0.00 0.00 33 1012.0
20260906002309 89 111 2.0 2.0 0.00 0.00 0.00 33 1011.8
20260906001805 89 108 5.0 5.0 0.00 0.00 0.00 34 1011.8
20260906001300 89 177 2.0 3.0 0.00 0.00 0.00 35 1012.0
20260906000755 90 103 7.0 8.0 0.00 0.00 0.00 34 1011.9
20260906000250 90 206 2.0 3.0 0.00 0.00 0.00 33 1011.8
20260905235745 90 187 2.0 2.0 0.00 0.00 0.00 32 1012.0
20260905235244 91 161 3.0 5.0 0.00 0.00 0.00 31 1011.8
20260905234740 90 178 1.0 2.0 0.00 0.00 0.00 33 1011.7
20260905234235 90 119 3.0 3.0 0.00 0.00 0.00 31 1012.0
20260905233730 91 13 3.0 5.0 0.00 0.00 0.00 30 1011.8
20260905233230 91 115 3.0 6.0 0.00 0.00 0.00 29 1011.9
20260905232724 91 106 5.0 8.0 0.00 0.00 0.00 31 1011.7
20260905232220 91 116 6.0 8.0 0.00 0.00 0.00 30 1012.0
20260905231716 91 106 5.0 6.0 0.00 0.00 0.00 30 1011.8
20260905231211 91 110 3.0 5.0 0.00 0.00 0.00 28 1011.9
20260905230707 91 183 4.0 5.0 0.00 0.00 0.00 28 1011.8
20260905230205 92 126 3.0 5.0 0.00 0.00 0.00 28 1012.2
20260905225704 91 121 7.0 7.0 0.00 0.00 0.00 30 1012.0
20260905225159 92 156 6.0 7.0 0.00 0.00 0.00 30 1012.0
20260905224653 92 235 3.0 6.0 0.00 0.00 0.00 30 1012.2
20260905224148 91 113 4.0 5.0 0.00 0.00 0.00 30 1012.0
20260905223645 91 109 6.0 9.0 0.00 0.00 0.00 30 1012.2
20260905223142 91 102 7.0 9.0 0.00 0.00 0.00 30 1012.0
20260905222637 91 67 3.0 5.0 0.00 0.00 0.00 33 1012.2
20260905222131 90 84 5.0 7.0 0.00 0.00 0.00 33 1012.0
20260905221627 91 173 4.0 6.0 0.00 0.00 0.00 34 1012.2
20260905221123 92 190 4.0 5.0 0.00 0.00 0.00 34 1011.9
20260905220619 93 145 3.0 6.0 0.00 0.00 0.00 33 1012.3
20260905220115 94 123 1.0 1.0 0.00 0.00 0.00 34 1012.1
20260905215614 93 212 2.0 3.0 0.00 0.00 0.00 34 1012.3
20260905215110 92 162 1.0 2.0 0.00 0.00 0.00 33 1012.4
20260905214606 92 91 6.0 8.0 0.00 0.00 0.00 32 1012.4
20260905214106 92 131 3.0 6.0 0.00 0.00 0.00 33 1012.5
20260905213601 92 123 4.0 5.0 0.00 0.00 0.00 32 1012.4
20260905213056 93 126 4.0 7.0 0.00 0.00 0.00 32 1012.5
20260905212551 93 116 3.0 6.0 0.00 0.00 0.00 31 1012.4
20260905212050 93 112 2.0 2.0 0.00 0.00 0.00 31 1012.4
20260905211546 93 146 1.0 2.0 0.00 0.00 0.00 29 1012.5
20260905211041 92 150 3.0 5.0 0.00 0.00 0.00 30 1012.6
20260905210537 93 157 8.0 10.0 0.00 0.00 0.00 28 1012.6
20260905210032 94 85 3.0 3.0 0.00 0.00 0.00 27 1012.7
20260905205531 94 24 4.0 6.0 0.00 0.00 0.00 26 1012.6
20260905205031 93 355 3.0 5.0 0.00 0.00 0.00 25 1012.7
20260905204526 93 156 2.0 2.0 0.00 0.00 0.00 25 1012.9
20260905204021 92 68 1.0 1.0 0.00 0.00 0.00 26 1012.9
20260905203521 94 125 7.0 9.0 0.00 0.00 0.00 23 1013.0
20260905203016 93 132 4.0 5.0 0.00 0.00 0.00 24 1012.9
20260905202511 92 145 1.0 2.0 0.00 0.00 0.00 25 1013.1
20260905202007 93 139 2.0 2.0 0.00 0.00 0.00 24 1013.0
20260905201502 92 219 3.0 3.0 0.00 0.00 0.00 21 1013.0
20260905201002 92 185 1.0 2.0 0.00 0.00 0.00 23 1013.2
20260905200457 92 151 2.0 2.0 0.00 0.00 0.00 24 1013.2
20260905195956 91 122 1.0 1.0 0.00 0.00 0.00 23 1013.1
20260905195451 91 161 1.0 1.0 0.00 0.00 0.00 23 1013.4
20260905194947 89 21 2.0 2.0 0.00 0.00 0.00 25 1013.3
20260905194446 89 161 0.0 1.0 0.00 0.00 0.00 27 1013.5
20260905193941 90 241 2.0 2.0 0.00 0.00 0.00 27 1013.7
20260905193441 90 173 1.0 1.0 0.00 0.00 0.00 29 1013.6
20260905192936 89 197 1.0 2.0 0.00 0.00 0.00 27 1013.8
20260905192431 88 164 1.0 1.0 0.00 0.00 0.00 32 1014.0
20260905191926 87 96 1.0 2.0 0.00 0.00 0.00 32 1014.1
20260905191425 86 131 3.0 3.0 0.00 0.00 0.00 33 1014.0
20260905190920 86 156 0.0 1.0 0.00 0.00 0.00 34 1013.9
20260905190418 86 176 1.0 1.0 0.00 0.00 0.00 35 1014.1
20260905185916 85 150 3.0 5.0 0.00 0.00 0.00 34 1014.1
20260905185412 85 167 1.0 1.0 0.00 0.00 0.00 37 1014.0
20260905184911 85 157 0.0 0.0 0.00 0.00 0.00 36 1014.2
20260905184410 86 177 0.0 0.0 0.00 0.00 0.00 34 1014.0
20260905183909 86 123 2.0 3.0 0.00 0.00 0.00 35 1014.0
20260905183359 86 157 2.0 2.0 0.00 0.00 0.00 33 1013.9
20260905182854 86 160 1.0 1.0 0.00 0.00 0.00 32 1014.1
20260905182353 86 114 2.0 2.0 0.00 0.00 0.00 31 1014.2
20260905181849 85 121 0.0 0.0 0.00 0.00 0.00 33 1014.2
20260905181349 86 269 1.0 2.0 0.00 0.00 0.00 32 1014.0
20260905180848 85 153 0.0 0.0 0.00 0.00 0.00 33 1014.2
20260905180343 85 117 2.0 2.0 0.00 0.00 0.00 34 1014.2
20260905175837 85 152 0.0 0.0 0.00 0.00 0.00 37 1014.3
20260905175332 84 161 1.0 1.0 0.00 0.00 0.00 34 1014.4
20260905174827 84 154 0.0 0.0 0.00 0.00 0.00 34 1014.3
20260905174323 84 176 0.0 0.0 0.00 0.00 0.00 33 1014.5
20260905173818 83 172 0.0 0.0 0.00 0.00 0.00 35 1014.4
20260905173315 82 150 0.0 1.0 0.00 0.00 0.00 34 1014.1
20260905172814 82 154 0.0 1.0 0.00 0.00 0.00 36 1014.1
20260905172312 82 94 1.0 1.0 0.00 0.00 0.00 34 1014.2
20260905171809 81 178 0.0 0.0 0.00 0.00 0.00 33 1014.0
20260905171305 81 152 1.0 1.0 0.00 0.00 0.00 35 1014.0
20260905170801 80 178 0.0 0.0 0.00 0.00 0.00 39 1014.0
20260905170257 80 142 0.0 1.0 0.00 0.00 0.00 40 1014.1
20260905165756 80 160 0.0 0.0 0.00 0.00 0.00 44 1013.9
20260905165252 79 201 0.0 0.0 0.00 0.00 0.00 42 1014.3
20260905164752 79 198 1.0 1.0 0.00 0.00 0.00 43 1013.9
20260905164246 79 157 0.0 0.0 0.00 0.00 0.00 38 1014.2
20260905163742 79 151 0.0 1.0 0.00 0.00 0.00 39 1014.2
20260905163238 78 204 0.0 1.0 0.00 0.00 0.00 41 1014.1
20260905162734 77 118 1.0 1.0 0.00 0.00 0.00 47 1014.2
20260905162233 77 144 1.0 1.0 0.00 0.00 0.00 50 1014.1
20260905161723 76 186 0.0 0.0 0.00 0.00 0.00 53 1013.9
20260905161221 75 132 0.0 0.0 0.00 0.00 0.00 55 1014.0
20260905160720 75 136 0.0 0.0 0.00 0.00 0.00 57 1014.1
20260905160220 75 137 0.0 0.0 0.00 0.00 0.00 56 1014.0
20260905155714 74 137 0.0 0.0 0.00 0.00 0.00 57 1014.3
20260905155213 74 137 0.0 0.0 0.00 0.00 0.00 59 1014.1
20260905154707 74 135 1.0 1.0 0.00 0.00 0.00 58 1014.3
20260905154202 74 137 0.0 0.0 0.00 0.00 0.00 60 1014.0
20260905153654 74 141 1.0 1.0 0.00 0.00 0.00 59 1014.1
20260905153148 74 198 0.0 1.0 0.00 0.00 0.00 59 1013.9
20260905152637 73 180 0.0 0.0 0.00 0.00 0.00 65 1013.9
20260905152132 72 128 0.0 0.0 0.00 0.00 0.00 68 1013.8
20260905151627 70 114 0.0 0.0 0.00 0.00 0.00 71 1013.8
20260905151122 69 116 0.0 0.0 0.00 0.00 0.00 72 1013.8
20260905150618 70 112 0.0 1.0 0.00 0.00 0.00 71 1013.9
20260905150116 69 124 0.0 0.0 0.00 0.00 0.00 72 1014.0
20260905145615 68 124 0.0 0.0 0.00 0.00 0.00 75 1013.9
20260905145114 67 124 0.0 0.0 0.00 0.00 0.00 76 1013.8
20260905144609 67 124 0.0 0.0 0.00 0.00 0.00 76 1013.8
20260905144108 66 124 0.0 0.0 0.00 0.00 0.00 77 1013.8
20260905143608 65 124 0.0 0.0 0.00 0.00 0.00 77 1013.7
20260905143103 64 124 0.0 0.0 0.00 0.00 0.00 81 1013.7
20260905142601 62 124 0.0 0.0 0.00 0.00 0.00 83 1013.4
20260905142056 62 124 0.0 0.0 0.00 0.00 0.00 87 1013.4
20260905141555 60 124 0.0 0.0 0.00 0.00 0.00 91 1013.2
20260905141052 60 124 0.0 0.0 0.00 0.00 0.00 93 1013.3
20260905140547 59 124 0.0 0.0 0.00 0.00 0.00 95 1013.3
20260905140046 57 124 0.0 0.0 0.00 0.00 0.00 96 1013.3
20260905135542 55 124 0.0 0.0 0.00 0.00 0.00 96 1013.4
20260905135036 53 124 0.0 0.0 0.00 0.00 0.00 96 1013.3
20260905134531 53 110 0.0 0.0 0.00 0.00 0.00 96 1013.3
20260905134030 53 110 0.0 0.0 0.00 0.00 0.00 96 1013.1
20260905133525 53 143 0.0 0.0 0.00 0.00 0.00 96 1012.9